"Pseudo-MPEC" for CA202DE

Created 2020 Sep 24 16:07:13 UT using Find_Orb

Click here for an explanation of pseudo-MPECs

 
 Astrometry: 
     CA202DE  C2020 09 04AWV4iml;8v7Astrometrygredacted;qnGOl61+t'@Myclickw][954
     CA202DE  C2020 09 04qqjlhereO[nMY`$pMONX0dip8q6fphI+9Au+pOfhCn!)rq0!j_YT954
     CA202DE  C2020 09 04#I$@;\j)+uvJ'PynCb?4k7i5PHiSqnforIkc+[Fkexplanation0954

Station data:
(954) Teide Observatory  (N28.298383 W16.509400)  Canary Islands (Spain).

Orbital elements:  CA202DE
   Perihelion 2020 Apr 12.203467 +/- 628 TT =  4:52:59 (JD 2458951.703467)
Epoch 2020 Sep  4.0 TT = JDT 2459096.5   Earth MOID: 0.0290   AutoNEOCP
M 150.55426940 +/- 110              (J2000 ecliptic)
n   1.03976432 +/- 0.543            Peri.  335.17008 +/- 55
a   0.96496769 +/- 0.336            Node   215.40510 +/- 60
e   0.0706527 +/- 0.194             Incl.    3.13706 +/- 39
P   0.95/346.23d           H 24.8   G  0.15   U 12.3  SR
q 0.89679008 +/- 1.87    Q 1.03314530 +/- 36.2
From 3 observations 2020 Sept. 4 (12.6 min); mean residual 0".05
Residuals in arcseconds: 
200904 954  .02-  .00     200904 954  .09+  .01-    200904 954  .07-  .00     

Ephemerides (geocentric):
Date (UTC) HH   RA              Dec         delta   r     elong  mag " sig PA
---- -- -- --  -------------   -----------  ------ ------ -----  --- ---- ---
2020 09 24 16  02 26 37.556   +50 17 37.67  .05363 1.0325 122.2 20.5  34d 135
2020 09 24 17  02 26 31.715   +50 16 32.77  .05359 1.0326 122.2 20.5  34d 135
2020 09 24 18  02 26 25.860   +50 15 27.65  .05355 1.0326 122.3 20.5  34d 135
2020 09 24 19  02 26 19.992   +50 14 22.30  .05351 1.0326 122.3 20.5  34d 135
2020 09 24 20  02 26 14.110   +50 13 16.73  .05346 1.0326 122.4 20.5  34d 135
2020 09 24 21  02 26 08.215   +50 12 10.94  .05342 1.0326 122.5 20.5  34d 135
2020 09 24 22  02 26 02.306   +50 11 04.92  .05338 1.0326 122.5 20.5  34d 135
2020 09 24 23  02 25 56.384   +50 09 58.67  .05334 1.0326 122.6 20.5  34d 135
2020 09 25 00  02 25 50.448   +50 08 52.20  .05330 1.0326 122.6 20.5  34d 135
2020 09 25 01  02 25 44.498   +50 07 45.50  .05325 1.0326 122.7 20.5  34d 135
2020 09 25 02  02 25 38.535   +50 06 38.58  .05321 1.0326 122.7 20.5  34d 135
2020 09 25 03  02 25 32.559   +50 05 31.42  .05317 1.0326 122.8 20.5  34d 135
2020 09 25 04  02 25 26.569   +50 04 24.04  .05313 1.0326 122.8 20.5  34d 135
2020 09 25 05  02 25 20.565   +50 03 16.43  .05309 1.0326 122.9 20.5  34d 135
2020 09 25 06  02 25 14.548   +50 02 08.59  .05304 1.0326 123.0 20.5  34d 135
2020 09 25 07  02 25 08.517   +50 01 00.52  .05300 1.0326 123.0 20.5  34d 135
2020 09 25 08  02 25 02.473   +49 59 52.21  .05296 1.0326 123.1 20.5  34d 135
2020 09 25 09  02 24 56.416   +49 58 43.68  .05292 1.0326 123.1 20.5  34d 135
2020 09 25 10  02 24 50.345   +49 57 34.91  .05288 1.0327 123.2 20.5  34d 135
2020 09 25 11  02 24 44.260   +49 56 25.91  .05284 1.0327 123.2 20.5  34d 135
2020 09 25 12  02 24 38.162   +49 55 16.68  .05279 1.0327 123.3 20.5  34d 135
2020 09 25 13  02 24 32.051   +49 54 07.21  .05275 1.0327 123.3 20.4  34d 135
2020 09 25 14  02 24 25.926   +49 52 57.51  .05271 1.0327 123.4 20.4  34d 135
2020 09 25 15  02 24 19.788   +49 51 47.57  .05267 1.0327 123.5 20.4  34d 135
2020 09 25 16  02 24 13.636   +49 50 37.40  .05263 1.0327 123.5 20.4  34d 135
2020 09 25 17  02 24 07.471   +49 49 26.99  .05258 1.0327 123.6 20.4  34d 135
2020 09 25 18  02 24 01.292   +49 48 16.35  .05254 1.0327 123.6 20.4  35d 135
2020 09 25 19  02 23 55.100   +49 47 05.46  .05250 1.0327 123.7 20.4  35d 135
2020 09 25 20  02 23 48.894   +49 45 54.34  .05246 1.0327 123.7 20.4  35d 135
2020 09 25 21  02 23 42.675   +49 44 42.98  .05242 1.0327 123.8 20.4  35d 135
2020 09 25 22  02 23 36.443   +49 43 31.38  .05238 1.0327 123.9 20.4  35d 135
2020 09 25 23  02 23 30.197   +49 42 19.54  .05233 1.0327 123.9 20.4  35d 135
2020 09 26 00  02 23 23.938   +49 41 07.46  .05229 1.0327 124.0 20.4  35d 135
2020 09 26 01  02 23 17.666   +49 39 55.14  .05225 1.0327 124.0 20.4  35d 135
2020 09 26 02  02 23 11.380   +49 38 42.57  .05221 1.0327 124.1 20.4  35d 135
2020 09 26 03  02 23 05.081   +49 37 29.76  .05217 1.0327 124.1 20.4  35d 135
2020 09 26 04  02 22 58.768   +49 36 16.71  .05213 1.0327 124.2 20.4  35d 135
2020 09 26 05  02 22 52.442   +49 35 03.42  .05208 1.0328 124.3 20.4  35d 135
2020 09 26 06  02 22 46.103   +49 33 49.88  .05204 1.0328 124.3 20.4  35d 135
2020 09 26 07  02 22 39.750   +49 32 36.10  .05200 1.0328 124.4 20.4  35d 135
2020 09 26 08  02 22 33.384   +49 31 22.07  .05196 1.0328 124.4 20.4  35d 135
2020 09 26 09  02 22 27.005   +49 30 07.79  .05192 1.0328 124.5 20.4  35d 135
2020 09 26 10  02 22 20.612   +49 28 53.27  .05188 1.0328 124.5 20.4  35d 135
2020 09 26 11  02 22 14.206   +49 27 38.50  .05184 1.0328 124.6 20.4  35d 135
2020 09 26 12  02 22 07.787   +49 26 23.48  .05179 1.0328 124.7 20.4  35d 135
2020 09 26 13  02 22 01.354   +49 25 08.21  .05175 1.0328 124.7 20.4  35d 135
2020 09 26 14  02 21 54.908   +49 23 52.69  .05171 1.0328 124.8 20.4  35d 135
2020 09 26 15  02 21 48.449   +49 22 36.92  .05167 1.0328 124.8 20.4  35d 135